Scottsbluff, NE

4:03 AM MST on December 13, 2019 (GMT -0700)
Heilig

Weather History for KBFF - November, 2019

Change the Weather History Date:

Saturday, November 16, 2019

  Actual Average Record
Temperature  
Mean Temperature 45 °F -  
Max Temperature 60 °F 51 °F 77 °F (2017)
Min Temperature 30 °F 22 °F -5 °F (1955)
Degree Days  
Heating Degree Days 20    
Moisture  
Dew Point 33 °F    
Average Humidity 73    
Maximum Humidity 96    
Minimum Humidity 39    
Precipitation  
Precipitation 0.00 in - - ()
Sea Level Pressure  
Sea Level Pressure 30.07 in    
Wind  
Wind Speed 7 mph ()    
Max Wind Speed 23 mph    
Max Gust Speed 32 mph    
Visibility 10.0 miles    
Events Rain    
Averages and records for this station are not official NWS values.
T = Trace of Precipitation, MM = Missing Value Source: Averaged Metar Reports

Daily Weather History Graph

Daily Weather History Graph

Search for Another Location

Airport or City:

Astronomy

Nov. 16, 2019 Rise Set
Actual Time 6:44 AM MST 4:32 PM MST
Civil Twilight 6:14 AM MST 5:02 PM MST
Nautical Twilight 5:41 AM MST 5:36 PM MST
Astronomical Twilight 5:08 AM MST 6:09 PM MST
Moon 8:06 PM MST (11/16) 10:42 AM MST (11/16)
Length of Visible Light 10h 47m
Length of Day
9h 47m
Waning Gibbous, 82% of the Moon is Illuminated
Nov 16
Waning Gibbous
Nov 19
Last Quarter
Nov 26
New
Dec 3
First Quarter
Dec 11
Full

Hourly Weather History & Observations

Time (MST) Temp. Windchill Dew Point Humidity Pressure Visibility Wind Dir Wind Speed Gust Speed Precip Events Conditions
12:53 AM 32.0 °F - 27.0 °F 82% 29.95 in 10.0 mi Calm Calm - N/A   Clear
1:53 AM 32.0 °F 28.7 °F 27.0 °F 82% 29.94 in 10.0 mi NNE 3.5 mph - N/A   Clear
2:53 AM 32.0 °F 26.4 °F 27.0 °F 82% 29.94 in 10.0 mi NNW 5.8 mph - N/A   Clear
3:53 AM 30.9 °F 26.2 °F 26.1 °F 82% 29.94 in 10.0 mi North 4.6 mph - N/A   Clear
4:53 AM 39.0 °F - 28.0 °F 65% 29.96 in 10.0 mi Calm Calm - N/A   Clear
5:53 AM 37.0 °F - 30.0 °F 76% 29.97 in 10.0 mi Calm Calm - N/A   Partly Cloudy
6:53 AM 39.9 °F 37.8 °F 28.9 °F 65% 29.99 in 10.0 mi North 3.5 mph - N/A   Clear
7:53 AM 44.1 °F 40.8 °F 30.9 °F 60% 29.99 in 10.0 mi WNW 5.8 mph - N/A   Scattered Clouds
8:53 AM 48.0 °F - 32.0 °F 54% 30.01 in 10.0 mi WNW 10.4 mph - N/A   Clear
9:53 AM 59.0 °F - 35.1 °F 41% 30.01 in 10.0 mi NW 17.3 mph - N/A   Mostly Cloudy
10:53 AM 57.0 °F - 36.0 °F 45% 30.02 in 10.0 mi NNW 11.5 mph - N/A   Overcast
11:53 AM 57.9 °F - 33.1 °F 39% 30.00 in 10.0 mi NW 9.2 mph - N/A   Mostly Cloudy
12:53 PM 60.1 °F - 37.0 °F 42% 29.99 in 10.0 mi WNW 5.8 mph - N/A   Overcast
1:53 PM 53.1 °F - 37.9 °F 57% 30.03 in 10.0 mi North 20.7 mph - N/A   Overcast
2:53 PM 45.0 °F 36.4 °F 37.9 °F 76% 30.12 in 10.0 mi NNW 23.0 mph 32.2 mph 0.00 in Rain Light Rain
3:53 PM 42.1 °F 33.1 °F 37.9 °F 85% 30.17 in 10.0 mi NW 20.7 mph 26.5 mph 0.00 in Rain Light Rain
4:53 PM 42.1 °F 36.6 °F 37.0 °F 82% 30.17 in 10.0 mi WNW 9.2 mph - 0.00 in   Overcast
5:53 PM 41.0 °F 33.9 °F 37.0 °F 86% 30.22 in 10.0 mi West 12.7 mph - N/A   Overcast
6:53 PM 37.9 °F 30.9 °F 36.0 °F 93% 30.23 in 10.0 mi WNW 10.4 mph - N/A   Partly Cloudy
7:53 PM 37.9 °F 30.5 °F 35.1 °F 89% 30.22 in 10.0 mi WNW 11.5 mph - N/A   Partly Cloudy
8:53 PM 36.0 °F 28.5 °F 34.0 °F 93% 30.22 in 10.0 mi WNW 10.4 mph - N/A   Clear
9:53 PM 34.0 °F 25.0 °F 33.1 °F 96% 30.20 in 10.0 mi WNW 12.7 mph - N/A   Clear
10:53 PM 33.1 °F 24.4 °F 32.0 °F 96% 30.21 in 10.0 mi WNW 11.5 mph - N/A   Clear
11:53 PM 30.9 °F 26.2 °F 28.9 °F 92% 30.22 in 10.0 mi NW 4.6 mph - N/A   Clear